GFSMW_con_mucape_183.txt.gz
CAPE
0 0 0 0 6 508 1154 1709 2146 2394 1796 1607 1584 1667 1099 651 644 489 277 535 820 298 266 216 192 142 37 0 0 0 0 0 0 0 10 12 15 16 21 22 0 0 0
0 0 0 208 290 891 1602 2214 2319 1953 1787 1179 1245 772 635 549 270 237 338 499 599 893 421 385 467 278 26 0 0 0 0 1 1 3 3 0 0 0 0 0 0 0 0
0 0 0 0 890 1487 2007 2583 2282 1833 1438 1472 1385 893 605 410 360 387 496 626 992 1108 685 465 434 14 28 0 0 0 0 4 6 16 15 3 0 0 3 9 4 0 0
0 0 0 0 0 940 2097 2436 2313 1845 1730 1806 1712 1124 800 688 660 670 403 975 694 668 674 561 418 272 47 55 13 0 0 2 2 1 9 6 3 5 0 0 7 0 0
0 0 0 0 0 31 1074 2013 1857 2057 1981 1968 1794 2256 1834 1526 1010 529 594 587 584 636 596 460 347 112 40 16 2 2 0 0 0 0 10 3 5 51 3 0 0 0 0
0 0 0 0 1 1 282 1196 1543 1668 1498 1459 1049 1465 1096 1462 1647 1244 721 514 477 383 324 319 195 54 5 6 4 3 1 0 0 0 8 5 0 0 0 0 0 0 0
0 0 0 0 1 0 0 268 766 746 1118 999 914 701 902 964 1056 908 967 529 360 231 166 77 28 4 0 0 0 0 0 0 0 1 0 0 0 0 0 1 0 0 0
0 2 1 0 0 1 0 0 165 473 676 629 827 1081 749 787 597 655 786 402 88 161 0 0 1 0 0 0 0 0 0 0 0 0 0 0 0 0 0 0 0 0 0
0 0 0 0 0 1 2 0 0 1 36 83 384 594 822 451 707 382 164 74 0 1 0 0 0 0 0 0 0 1 0 0 0 0 0 0 0 0 0 0 0 0 0
2 0 0 1 33 51 29 14 12 5 0 0 0 33 75 98 36 74 159 10 1 0 0 1 3 2 0 0 0 0 0 0 0 0 0 0 0 0 0 0 0 0 0
17 23 37 50 59 27 6 6 7 0 0 0 0 0 0 0 0 0 0 0 0 0 0 0 0 0 0 0 0 0 0 0 0 0 0 0 0 0 0 0 0 0 0
29 52 32 33 34 3 3 3 8 12 17 14 0 0 0 0 0 0 0 0 0 0 0 0 0 0 0 0 0 0 0 0 0 0 0 0 0 0 0 0 0 0 0
182 115 67 49 29 1 0 0 5 11 18 18 18 19 5 0 0 0 0 0 4 0 3 2 0 0 0 0 0 0 0 0 0 0 0 0 0 0 0 0 0 0 0
188 192 233 134 112 37 13 13 17 11 12 15 21 12 5 0 0 2 5 7 1 0 0 0 0 0 0 0 0 0 0 0 0 0 0 0 0 0 0 0 0 0 0
158 119 152 165 244 253 178 108 95 58 35 21 16 34 7 4 0 0 1 0 0 0 0 0 0 0 0 0 0 0 0 0 0 0 0 0 0 0 0 0 0 0 0
148 0 16 12 27 115 259 277 216 251 150 63 33 50 5 1 0 0 0 0 0 0 0 0 0 0 0 0 0 0 0 0 0 0 0 0 0 0 0 0 0 0 0
92 60 27 0 1 0 16 50 333 373 319 183 129 25 13 0 0 0 0 0 0 0 0 0 0 0 0 0 0 0 0 0 0 0 0 0 0 0 0 0 0 0 0
0 88 115 62 8 0 1 29 71 147 655 426 250 120 48 0 0 0 0 0 0 0 0 0 0 0 0 0 0 0 0 0 0 0 0 0 0 0 0 0 0 0 0
0 0 4 1 0 6 3 0 83 89 386 176 184 145 110 8 0 0 0 0 0 0 0 0 0 0 0 0 0 0 0 0 0 0 0 0 0 0 0 0 0 0 0
0 0 0 0 0 0 12 13 61 139 136 111 181 145 138 92 0 0 0 0 0 0 0 0 0 0 0 0 0 0 0 0 0 0 0 0 0 0 0 0 0 0 0
0 0 0 0 0 0 0 0 1 72 115 201 148 151 179 149 110 2 0 0 0 0 0 0 0 0 0 0 0 0 0 0 0 0 0 0 0 0 0 0 0 0 0
0 0 0 0 0 0 0 0 0 28 72 123 72 127 154 173 129 50 10 2 0 0 0 0 0 0 0 0 0 0 0 0 0 0 0 0 0 0 0 0 0 0 0
0 0 0 0 0 0 0 0 0 11 19 44 71 54 136 163 138 70 51 7 0 0 0 0 0 0 0 0 0 0 0 0 0 0 0 0 0 0 0 0 0 0 0
0 0 0 0 0 0 0 0 0 0 3 9 21 30 117 154 112 97 58 16 11 1 0 0 0 0 0 0 0 0 0 0 0 0 0 0 0 0 0 0 0 0 0
0 0 0 0 0 0 0 0 0 0 3 13 9 19 44 149 171 149 110 41 63 0 1 5 5 5 3 3 6 11 1 0 0 0 0 0 0 0 0 0 0 0 0
0 0 0 0 0 0 0 0 0 0 0 15 8 2 10 116 184 165 83 61 3 1 4 5 5 3 1 0 2 0 0 0 0 0 0 0 0 0 0 0 0 0 0

GFSMW_con_mucape_186.txt.gz
CAPE
0 0 0 0 86 90 516 1862 1897 1774 1583 1306 1235 1654 1473 1230 1427 1254 1434 1461 1299 1065 952 920 784 610 177 69 43 10 5 0 0 0 0 1 5 8 6 23 9 7 0
0 0 0 10 860 407 1297 2028 2131 1896 1523 1321 1165 1525 1280 1252 1458 1273 908 1122 1316 832 981 870 713 355 106 99 109 52 10 0 0 0 0 0 0 13 17 16 8 4 0
0 0 18 7 339 1341 2271 2234 2182 2152 1789 1505 1285 1473 1441 1349 1028 850 1169 925 1081 752 657 919 345 366 370 301 217 58 13 0 0 1 0 0 0 0 8 9 8 2 0
0 0 51 70 180 949 2354 3110 2665 2125 1892 1676 1317 1629 1758 1442 996 1042 826 424 273 256 409 792 671 572 475 364 327 85 1 4 0 0 0 0 0 0 0 2 10 7 3
2 0 0 0 20 1 1282 2527 2442 2189 1865 1636 2079 1903 1670 1671 1472 1473 808 640 494 853 761 706 1299 662 510 409 315 110 5 4 0 0 0 0 17 14 0 0 0 0 4
0 0 0 0 0 0 0 1566 2339 1759 1598 1658 1586 1403 1451 1497 1421 1327 1463 1374 709 635 685 972 803 502 445 286 29 2 4 5 0 0 0 0 5 0 0 0 0 0 0
0 0 0 0 0 0 0 167 1171 1521 1470 1659 1609 1452 1237 994 1257 802 699 984 956 529 556 496 466 328 0 1 0 0 0 0 0 0 0 1 0 4 4 2 0 0 0
0 0 14 31 0 0 0 63 438 982 940 727 996 1267 894 831 442 624 854 518 814 672 553 477 1 8 0 3 0 0 0 0 3 0 0 0 0 0 0 0 0 0 0
0 0 6 6 3 0 1 2 216 442 638 766 951 968 816 745 876 711 474 368 373 446 264 11 2 0 2 0 0 7 0 0 0 0 0 0 0 0 0 0 0 0 0
0 0 0 7 33 42 1 4 0 3 5 18 149 258 301 336 508 294 448 356 289 199 198 0 0 0 0 1 0 0 0 0 0 0 0 0 0 0 0 0 0 0 0
16 10 24 52 101 131 5 0 0 0 0 0 0 0 5 17 30 20 6 11 35 16 0 0 0 0 0 0 0 0 0 0 0 0 0 0 0 0 0 0 0 0 0
197 66 49 40 92 7 0 0 0 0 0 0 0 0 0 0 0 0 0 0 0 0 0 0 0 0 0 0 0 0 0 0 0 0 0 0 0 0 0 0 0 0 0
78 163 155 40 100 31 1 0 2 0 0 0 0 0 0 0 0 0 0 0 0 0 0 0 0 0 0 0 0 0 0 0 0 0 0 0 0 0 0 0 0 0 0
34 115 104 97 86 67 23 7 8 0 0 0 0 0 0 0 0 0 0 0 0 5 1 2 0 0 0 0 0 0 0 0 0 0 0 0 0 0 0 0 0 0 0
40 205 126 114 119 71 81 8 22 3 0 1 0 0 0 0 0 0 0 4 1 1 0 0 0 0 0 0 0 0 0 0 0 0 0 0 0 0 0 0 0 0 0
6 48 128 124 98 114 84 72 79 65 38 4 17 9 1 2 0 0 0 2 0 0 0 0 0 0 0 0 0 0 0 0 0 0 0 0 0 0 0 0 0 0 0
6 3 42 148 138 152 150 81 136 170 106 34 14 18 26 27 2 0 0 0 0 0 0 0 0 0 0 0 0 0 0 0 0 0 0 0 0 0 0 0 0 0 0
7 2 0 8 104 146 213 88 95 141 21 19 25 60 106 74 60 8 24 17 0 0 0 0 0 0 0 0 0 0 0 0 0 0 0 0 0 0 0 0 0 0 0
16 27 8 0 2 27 106 96 57 29 4 22 34 88 59 72 34 18 27 8 0 0 0 0 0 0 0 0 0 0 0 0 0 0 0 0 0 0 0 0 0 0 0
9 9 17 37 45 25 0 0 0 0 0 19 8 47 103 62 60 70 22 3 0 0 0 0 0 0 0 0 0 0 0 0 0 0 0 0 0 0 0 0 0 0 0
0 1 0 0 0 0 0 0 0 0 0 0 42 127 163 49 59 58 23 0 0 0 0 0 0 0 0 0 0 0 0 0 0 0 0 0 0 0 0 0 0 0 0
0 0 0 0 0 0 0 0 0 0 0 0 0 19 76 67 41 55 48 11 0 0 0 0 0 0 0 0 0 0 0 0 0 0 0 0 0 0 0 0 0 0 0
0 0 0 0 0 0 0 0 0 0 0 0 0 4 112 64 38 51 56 61 13 0 0 0 0 0 0 0 0 0 0 0 0 0 0 0 0 0 0 0 0 0 0
0 0 0 0 0 0 0 0 1 0 0 0 0 14 78 107 72 56 53 53 53 34 33 9 1 0 0 0 0 0 0 0 0 0 0 0 0 0 0 0 0 0 0
3 0 0 0 0 0 0 0 0 0 0 0 0 0 1 27 147 73 78 55 55 36 43 34 11 0 0 0 1 2 4 3 0 0 0 0 0 0 0 0 0 0 0
63 32 5 1 0 0 0 0 0 0 0 0 0 0 0 5 27 39 56 58 56 55 52 42 16 9 5 2 3 1 0 1 0 0 0 0 0 0 0 0 0 0 0

GFSMW_con_mucape_189.txt.gz
CAPE
0 0 0 1 0 4 667 912 1017 965 1014 1585 1771 1711 1721 1741 1442 1609 1514 1655 1449 1365 998 1017 884 852 639 613 481 538 122 41 22 0 0 0 4 19 8 6 2 4 9
0 0 7 85 818 1300 747 1140 1215 1378 1178 1120 1327 1546 1510 1524 1657 1537 1647 1746 1548 1365 1169 1062 1005 838 692 525 525 324 409 42 33 34 42 0 0 35 26 13 4 1 2
0 0 0 28 541 1293 1520 1394 1329 1433 1427 1261 1282 1253 1403 1451 1414 1533 1558 1490 1608 1419 1365 1126 998 781 587 428 483 262 109 104 59 30 5 0 0 0 16 33 14 3 6
0 0 5 1 137 952 2030 1855 1626 1597 1526 1461 1489 1463 1443 1312 1404 1501 1376 1191 1111 1119 976 1024 756 631 586 500 161 219 247 194 3 1 0 0 0 14 1 22 16 14 8
0 0 0 0 0 258 1719 2168 2009 1861 1885 1864 1813 1729 1481 1283 1375 1681 1398 1432 1149 1429 948 788 556 165 213 375 519 386 59 1 0 0 0 0 0 0 0 0 0 0 4
0 0 0 0 0 0 0 2052 2553 2258 2112 2192 2086 1810 1497 1450 1356 1362 1369 1594 1379 1148 925 701 345 740 637 392 342 149 1 0 0 0 20 0 0 0 0 0 0 0 0
0 0 0 0 0 0 0 111 1663 2116 2480 1929 1864 1720 1567 1502 1273 1247 1165 996 1195 1000 796 791 602 471 403 427 148 1 2 0 0 2 0 2 0 0 0 0 0 0 0
0 0 0 0 0 0 0 0 20 704 643 1079 1133 1090 1553 1405 1049 726 738 507 438 451 625 575 476 273 210 10 0 0 0 0 1 1 1 0 0 0 0 0 0 0 0
0 0 0 0 0 0 0 0 1 6 70 296 514 439 624 662 1048 1038 257 835 378 273 353 399 315 147 5 1 0 0 0 1 3 0 0 2 0 0 0 0 0 0 0
0 0 0 0 0 0 0 0 0 2 11 26 143 205 391 438 327 526 575 362 356 186 52 143 175 105 92 0 0 0 0 0 0 0 0 0 0 0 0 0 0 0 0
0 1 5 7 0 0 17 4 0 0 0 2 4 22 74 142 144 285 201 387 273 276 125 122 137 6 0 0 0 0 0 0 0 0 0 0 0 0 0 0 0 0 0
0 11 10 13 16 15 0 22 0 0 0 0 0 0 0 7 33 23 5 4 1 0 0 0 0 0 0 0 0 0 0 0 0 0 0 0 0 0 0 0 0 0 0
0 0 26 23 27 42 23 0 0 0 0 0 0 0 1 0 0 0 0 0 0 0 0 0 0 0 0 0 0 0 0 0 0 0 0 0 0 0 0 0 0 0 0
0 3 114 131 91 79 37 0 0 0 0 0 0 0 3 0 0 0 0 0 0 0 0 0 0 0 0 0 0 0 0 0 0 0 0 0 0 0 0 0 0 0 0
0 0 31 166 186 131 117 68 2 0 2 0 0 0 0 0 0 0 0 0 0 2 10 6 1 3 0 0 0 0 0 0 0 0 0 0 0 0 0 0 0 0 0
0 0 0 26 93 117 130 157 163 116 34 28 15 12 43 1 0 0 0 0 0 1 10 8 7 0 0 0 0 0 0 0 0 0 0 0 0 0 0 0 0 0 0
9 3 5 49 91 118 160 188 186 117 144 54 34 23 0 17 0 0 16 8 22 5 3 5 0 0 0 0 0 0 0 0 0 0 0 0 0 0 0 0 0 0 0
0 5 20 30 46 47 77 145 189 228 151 80 73 124 108 3 0 41 47 67 48 39 46 9 0 0 0 0 0 0 0 0 0 0 0 0 0 0 0 0 0 0 0
0 3 0 0 1 4 9 1 27 58 64 82 30 114 108 73 5 0 67 62 43 56 28 16 0 0 0 0 0 0 0 0 0 0 0 0 0 0 0 0 0 0 0
0 0 0 0 0 0 0 0 0 55 114 69 16 0 43 50 4 0 37 93 43 85 30 5 0 0 0 0 0 0 0 0 0 0 0 0 0 0 0 0 0 0 0
0 0 0 0 0 0 0 0 0 0 0 0 0 0 3 22 59 20 0 39 53 63 17 0 0 0 0 0 0 0 0 0 0 0 0 0 0 0 0 0 0 0 0
0 0 0 0 0 0 0 0 0 0 0 0 0 0 0 7 46 60 52 4 54 73 28 0 0 0 0 0 0 0 0 0 0 0 0 0 0 0 0 0 0 0 0
0 0 0 0 0 0 0 0 0 0 16 8 0 0 0 0 10 86 1 0 7 67 33 0 0 0 0 0 0 0 0 0 0 0 0 0 0 0 0 0 0 0 0
0 0 0 0 0 0 0 0 0 0 13 1 0 0 0 0 7 38 66 26 31 1 42 1 0 0 0 0 0 0 0 0 0 0 0 0 0 0 0 0 0 0 0
0 0 0 0 1 2 1 0 0 0 9 4 0 0 0 0 0 8 0 54 60 0 43 36 18 15 10 9 0 0 0 0 0 1 0 0 0 0 0 0 0 0 0
0 0 0 0 0 2 1 0 0 1 17 1 0 0 0 0 0 0 0 15 18 0 0 43 16 0 15 3 5 0 0 3 0 0 0 0 0 0 0 0 0 0 0

GFSMW_con_mucape_195.txt.gz
CAPE
0 0 0 0 0 0 62 1073 1315 1282 1283 1595 1763 1276 657 740 718 712 978 1376 1305 796 626 654 830 1222 1550 1693 1375 1231 811 371 398 198 128 153 25 81 4 21 34 31 12
0 0 7 0 0 0 40 983 1311 1428 1440 1476 1724 1438 999 1067 1291 1652 1908 1818 1447 1210 1152 1183 1065 1336 1440 1269 1302 1094 640 457 480 272 336 58 6 2 2 11 40 1 10
0 2 163 16 0 0 175 757 1286 1396 1424 1525 1681 1567 1278 1466 1770 1843 1841 1751 1710 1831 1730 1397 1368 1277 1200 1113 1055 977 730 569 338 246 153 153 2 5 2 1 8 2 0
0 0 112 433 89 105 237 412 916 1359 1527 1620 1705 1713 1560 1480 1642 1799 1853 1944 2036 1878 1844 1745 1579 1349 1152 929 846 681 614 554 430 328 208 131 10 8 5 6 5 0 0
0 0 0 69 869 498 537 581 662 842 1309 1619 1725 1800 1812 1537 1470 1548 1595 1560 1486 1497 1471 1298 1320 1024 914 825 831 698 653 553 448 206 210 200 53 27 12 0 0 0 0
0 0 0 0 104 1117 1157 1096 1063 1053 1037 1209 1497 1728 1844 1493 1369 1447 1446 1402 1252 1465 1439 1300 1072 1412 1288 993 814 727 601 497 392 279 111 47 7 19 0 0 0 0 0
0 0 0 0 0 125 932 1375 1607 1617 1559 1508 1446 1270 1465 1578 1677 1638 1316 1112 1104 1077 1255 1201 1080 901 916 651 672 732 82 229 129 122 21 47 1 12 0 0 0 0 0
0 0 0 0 0 0 15 731 1255 1554 1344 1539 1655 1665 1735 1765 1761 1562 1370 1121 1063 634 841 927 717 609 638 251 155 55 73 53 29 48 32 2 0 19 0 1 0 0 0
0 0 0 0 0 0 0 0 19 327 891 1129 1273 1435 1080 1002 903 711 548 448 568 508 632 313 387 337 92 32 76 6 31 27 41 8 1 3 14 19 17 11 6 0 0
0 0 0 0 0 0 0 0 0 0 0 0 0 0 85 94 0 25 159 217 46 158 131 159 59 30 24 98 53 20 5 83 8 16 2 24 9 15 1 10 0 22 0
0 0 0 0 0 0 0 0 0 0 0 0 0 0 0 1 0 4 27 47 36 36 117 41 174 227 17 73 0 0 34 52 5 0 1 0 0 0 0 6 8 7 3
0 0 0 0 5 1 0 13 23 13 7 0 0 0 0 0 0 0 0 0 3 15 65 62 89 38 15 93 49 54 50 68 1 0 0 0 0 0 0 0 0 0 0
0 0 0 0 0 3 7 13 20 25 24 29 3 0 0 0 0 0 0 1 4 20 45 89 78 103 156 209 96 61 50 0 0 0 1 0 0 0 0 0 0 0 0
0 0 0 0 0 12 49 53 45 57 73 45 8 4 6 3 0 0 0 0 0 4 10 6 35 18 45 15 0 0 0 0 0 0 0 0 0 0 0 0 0 0 0
0 0 0 0 0 3 24 76 51 39 9 33 5 20 8 13 15 1 0 0 0 0 0 1 6 3 0 0 0 2 0 0 0 1 0 0 0 0 0 0 0 0 0
0 0 0 0 4 18 15 21 41 13 7 8 7 8 17 42 32 3 4 30 2 0 0 3 6 21 0 0 2 2 10 15 1 0 0 0 0 0 0 0 0 0 0
0 0 0 1 0 0 0 0 0 0 0 0 1 3 15 17 13 16 36 56 5 4 2 0 0 0 3 1 6 21 41 3 0 0 0 0 0 0 0 0 0 0 0
0 2 5 4 0 0 0 0 0 0 0 0 0 0 0 2 1 1 2 35 18 13 6 0 4 0 1 2 7 20 12 0 0 0 0 0 0 0 0 0 0 0 0
1 3 8 3 0 0 0 0 0 0 0 0 0 0 0 0 4 3 1 6 69 28 7 13 0 5 0 17 19 23 1 0 0 0 0 0 0 0 0 0 0 0 0
0 0 1 0 0 0 0 0 0 0 0 0 0 0 0 0 0 1 7 0 36 9 5 2 3 1 3 30 13 10 2 0 0 0 0 0 0 0 0 0 0 0 0
0 0 0 0 0 0 0 0 0 0 0 0 0 0 0 0 0 0 4 45 21 15 32 62 16 0 43 22 12 41 2 0 0 0 0 0 0 0 0 0 0 0 0
1 0 0 0 0 0 0 0 0 0 0 0 0 0 0 0 0 0 7 8 15 39 2 37 100 72 19 15 26 41 34 0 0 0 0 0 0 0 0 0 0 0 0
0 0 0 0 0 0 0 0 0 0 0 0 0 0 0 0 0 20 96 74 29 2 0 113 14 1 33 4 10 0 32 0 0 0 0 0 0 0 0 0 0 0 0
0 0 0 0 0 0 0 0 0 0 0 0 0 0 0 0 0 20 60 25 6 1 4 0 0 0 17 0 0 18 52 0 0 0 0 0 0 0 0 0 0 0 0
0 0 0 0 0 0 0 0 0 0 0 0 0 0 0 0 0 0 0 0 1 1 0 0 21 0 0 4 1 48 59 7 0 0 0 0 0 0 0 0 0 0 0
0 0 0 0 0 0 0 0 0 0 0 0 0 0 0 0 0 0 0 0 0 0 0 1 22 18 0 0 8 36 83 32 0 0 0 0 0 0 0 0 0 0 0